Wetbulb
65.43 64.22 64.68 59.73 49.69 50.74 48.54 51.14 55.95 55.37 56.90 59.82 59.35 57.94 57.51 61.68 61.05 60.79 71.28 73.03 76.17 77.77 77.34 77.50 78.62 78.92 78.80 78.16 77.76 77.18 76.92 76.79 76.74 76.95 76.79 76.74 77.07 77.00 77.15 77.30 77.56 77.48 77.39 76.66 76.48 76.09 75.47 74.54 73.64
62.83 62.56 59.58 54.59 47.60 45.97 48.40 53.84 53.21 56.20 58.01 59.14 58.69 57.94 58.05 60.54 65.64 67.65 69.17 73.83 75.97 78.74 77.87 77.31 78.66 78.67 78.62 77.88 77.43 76.97 76.90 76.79 76.84 76.94 76.92 77.05 77.07 77.05 77.22 77.43 77.58 77.25 76.57 76.32 76.01 75.33 74.26 73.38 72.43
62.20 62.20 55.95 51.39 48.26 45.90 48.26 53.38 54.10 57.25 58.38 57.79 57.05 58.70 57.96 61.77 65.99 67.42 71.34 74.71 76.36 79.65 78.30 78.05 78.66 78.56 78.47 78.04 77.32 76.69 76.82 76.84 76.86 76.87 76.92 77.05 77.17 76.95 77.12 77.36 77.43 77.02 75.96 75.58 75.29 74.77 74.24 73.36 72.63
59.01 58.03 55.60 49.20 47.69 50.81 51.52 53.74 54.48 54.45 56.05 56.35 56.30 54.86 62.27 64.85 65.82 69.08 72.46 74.60 75.40 79.21 78.92 77.53 78.20 78.18 78.18 77.80 77.27 76.79 76.57 76.74 76.84 77.15 76.97 77.03 77.02 76.72 76.74 77.20 77.26 77.04 75.94 75.49 74.98 74.15 73.25 72.22 71.20
56.79 55.54 49.50 47.46 47.73 50.49 52.71 54.37 54.52 52.95 53.89 54.15 55.39 53.14 58.06 62.79 66.73 68.40 71.79 73.89 75.24 78.42 77.87 77.21 77.98 78.03 78.21 77.91 77.45 77.22 76.87 76.69 76.91 76.99 76.90 76.75 76.71 76.44 76.67 77.12 77.18 76.79 76.19 75.14 74.70 73.51 72.35 71.40 70.44
52.00 52.24 45.90 45.20 48.31 51.45 53.36 55.22 54.02 53.38 54.39 54.58 53.72 53.33 56.03 61.52 63.02 65.46 69.77 73.79 76.51 77.91 77.91 76.83 77.76 77.85 77.70 77.75 77.52 77.24 76.83 76.71 76.71 76.79 76.84 76.92 76.58 76.46 76.77 76.95 77.05 76.70 76.14 75.26 74.09 72.08 71.15 72.02 72.17
50.87 50.07 46.92 47.21 47.40 49.35 52.45 56.08 53.87 53.41 53.69 53.76 56.29 52.42 56.00 58.36 60.39 62.74 68.15 74.91 78.88 78.74 78.21 76.75 75.72 77.14 77.42 77.31 77.21 77.05 76.77 76.75 76.70 76.68 76.48 76.28 76.38 76.35 76.63 76.82 76.93 76.75 76.12 75.16 73.13 71.94 71.74 72.12 72.02
52.61 50.56 47.15 47.78 47.24 48.38 53.41 54.76 55.17 53.75 53.48 57.58 57.09 52.47 53.99 58.51 59.95 61.34 65.41 70.18 74.89 78.64 77.78 76.74 75.69 75.04 75.81 76.10 76.98 76.95 76.77 76.45 76.44 76.24 76.22 75.99 76.08 76.35 76.50 76.07 76.29 76.02 75.20 73.94 72.81 72.58 72.39 72.27 72.41
53.54 46.56 44.73 46.76 48.09 49.38 53.63 52.90 55.35 55.88 53.36 54.50 55.11 55.27 57.10 58.62 58.99 59.74 62.49 66.05 73.66 76.53 77.85 77.23 75.72 74.53 73.62 74.05 75.96 76.51 76.69 75.85 76.31 76.20 75.97 75.17 73.85 74.15 74.94 74.37 75.76 75.57 74.59 73.71 73.36 73.01 72.74 72.80 73.28
49.12 45.93 46.29 50.02 50.33 49.22 51.16 51.91 52.19 51.91 51.87 52.22 53.23 55.47 56.87 57.15 57.56 56.98 57.90 59.47 72.39 74.84 76.16 77.63 76.50 74.87 73.46 73.21 75.08 74.96 75.14 75.32 75.49 75.20 75.07 73.95 72.77 72.34 72.77 73.96 75.62 75.14 74.60 74.12 73.75 73.40 73.20 73.35 69.92
50.33 46.80 49.59 49.84 51.18 51.09 49.80 50.22 52.27 50.11 49.02 51.38 51.34 53.47 55.37 56.20 57.60 57.06 57.23 58.71 59.77 73.42 76.02 75.58 76.52 75.54 74.81 73.70 73.53 72.55 73.26 73.23 73.54 73.72 74.05 73.19 72.58 72.03 72.56 73.55 73.17 73.42 73.80 71.87 72.19 71.49 71.29 69.85 69.61
48.07 50.23 50.10 50.27 51.22 50.38 49.20 51.19 49.50 50.20 50.44 53.12 53.54 54.50 54.62 54.93 55.65 57.15 57.10 58.43 59.79 64.98 72.31 76.46 77.00 75.99 75.79 73.91 72.22 72.42 72.25 72.29 71.73 72.35 73.05 71.55 73.34 71.42 72.55 73.95 73.04 72.17 71.73 70.31 71.09 70.69 71.21 71.99 72.28
48.16 49.26 50.53 50.96 50.74 50.40 50.56 48.84 48.84 49.14 51.76 53.21 53.37 53.67 53.14 53.84 55.48 56.45 58.73 60.69 63.41 66.88 69.22 75.16 77.30 77.47 76.29 73.48 72.50 72.78 72.63 72.12 72.06 72.39 72.95 71.87 73.45 72.39 74.25 74.12 71.92 71.34 71.77 71.51 72.30 71.87 72.79 72.66 72.56
49.85 49.54 49.47 49.86 49.62 50.08 48.49 48.84 49.82 50.28 52.84 52.85 52.81 52.00 52.66 53.46 54.64 56.18 57.67 60.31 64.28 65.88 69.78 75.00 76.12 77.20 77.00 75.80 75.28 73.01 74.27 73.53 73.25 73.34 73.42 72.95 74.36 75.04 73.87 74.01 73.26 73.31 73.11 72.78 72.31 71.92 73.15 72.30 72.69
50.48 47.00 48.48 49.54 50.25 49.57 50.66 46.95 47.54 52.00 53.24 52.11 52.51 52.65 52.84 53.05 54.11 55.56 57.98 59.78 62.60 64.81 67.66 71.29 76.35 76.75 75.27 76.12 76.46 74.13 74.11 74.64 74.25 74.35 74.41 73.37 75.17 75.74 74.33 73.29 73.25 72.60 73.34 74.12 74.89 74.16 73.73 73.03 72.97
47.55 48.20 44.25 49.43 50.50 50.70 49.17 43.53 49.80 52.69 52.05 51.43 51.97 53.13 53.11 53.15 54.19 56.55 57.62 60.00 61.72 64.32 67.09 70.79 68.46 76.35 76.31 72.71 76.09 75.44 74.16 75.35 74.36 74.50 75.32 74.24 74.80 75.82 74.17 73.31 72.68 72.96 74.24 73.41 73.78 73.81 73.03 72.98 72.31
47.21 42.71 44.17 45.95 50.29 49.49 48.49 45.28 49.67 52.24 52.08 51.61 52.54 53.30 53.90 54.44 56.58 58.25 58.59 59.25 62.72 65.00 68.13 69.36 70.84 71.15 76.30 75.95 73.48 75.51 74.64 75.55 74.24 74.60 74.37 74.33 74.67 74.36 73.30 73.48 72.87 74.76 73.56 74.44 74.08 73.77 73.23 72.23 72.54
42.15 42.30 43.52 43.01 46.72 47.70 45.87 45.52 48.49 50.68 50.58 51.13 52.16 52.90 54.07 54.88 56.13 58.27 59.58 59.42 61.42 64.59 67.77 70.23 70.37 71.89 72.57 76.78 76.08 74.62 74.47 74.92 76.41 73.89 74.43 74.42 74.42 74.07 74.05 72.87 73.26 74.56 74.33 73.97 73.43 73.77 74.19 73.55 72.11
45.60 43.48 42.19 44.59 47.24 45.63 44.96 45.65 48.12 50.69 50.97 50.21 51.56 52.64 53.84 55.03 57.13 58.62 59.79 60.53 61.91 64.15 66.98 68.95 69.93 72.23 72.76 74.77 74.36 74.45 72.70 74.06 74.54 73.83 74.74 74.21 73.87 73.67 73.09 72.05 73.97 74.65 72.83 73.91 74.49 73.56 72.29 71.01 69.84
44.17 42.47 42.26 45.04 46.93 46.09 45.28 45.03 48.24 50.37 49.70 50.68 52.00 52.83 53.92 55.32 56.51 57.75 59.19 61.22 63.08 65.55 68.62 68.36 68.69 71.59 71.71 73.46 74.44 74.74 74.04 72.88 74.05 73.62 73.64 74.19 73.76 73.37 72.16 71.96 72.76 74.27 73.60 73.96 73.39 72.58 71.45 70.60 68.28
43.82 42.18 42.19 41.81 44.78 45.76 44.40 42.92 45.30 49.10 50.91 52.29 53.66 54.33 54.73 55.30 56.01 57.86 58.63 60.38 61.89 63.01 66.05 67.88 68.74 69.26 71.72 72.09 73.99 74.35 74.16 72.43 71.26 71.63 72.39 73.62 73.51 72.87 71.37 71.59 72.92 74.24 74.53 73.13 73.07 72.45 71.52 68.67 66.37
40.79 45.30 44.18 43.00 41.43 36.88 44.51 36.15 43.92 46.98 48.05 49.68 51.78 53.30 53.52 54.96 56.51 57.37 59.02 60.30 61.23 62.11 64.44 67.74 68.55 70.57 70.39 70.98 69.13 72.42 71.86 70.34 70.67 71.07 71.95 72.87 72.78 71.70 72.13 72.86 75.33 74.55 74.02 73.02 72.87 72.26 71.07 69.69 65.17
43.05 46.67 44.75 43.92 41.60 41.04 41.38 38.49 42.21 46.79 45.79 48.87 51.55 52.91 53.23 54.38 55.76 55.96 56.97 59.04 61.21 61.45 62.15 66.58 67.90 69.09 71.28 73.06 72.44 72.31 72.80 71.99 72.28 71.58 70.37 72.20 71.94 71.73 73.18 74.61 75.24 73.02 72.73 71.30 69.76 68.31 67.77 64.15 62.50
47.79 45.41 45.21 44.78 42.95 36.77 41.01 39.99 41.22 43.20 46.11 48.84 49.62 52.74 53.55 54.11 54.61 55.46 57.32 60.39 60.54 61.43 61.32 63.59 68.60 68.69 71.38 72.06 72.53 72.14 72.76 72.62 70.18 69.75 69.51 71.13 70.28 71.99 73.36 73.88 73.59 71.28 69.02 67.37 65.79 65.02 63.84 62.63 61.41
45.70 42.20 35.15 32.22 33.73 33.02 41.06 38.22 38.71 47.06 48.61 50.36 50.57 51.77 53.46 54.61 55.21 55.13 55.16 55.74 59.82 59.91 61.54 62.24 64.09 67.07 69.73 71.41 71.49 71.55 72.61 73.02 71.95 69.73 68.69 70.16 69.01 71.02 72.24 72.32 69.85 67.55 65.71 64.34 64.56 61.80 60.15 59.60 58.17
42.87 41.27 35.58 27.89 30.06 34.29 41.20 35.13 40.34 49.46 51.55 51.83 51.92 52.64 53.45 54.11 54.74 55.83 56.49 57.83 57.01 60.23 63.04 62.84 64.54 66.43 68.20 69.46 70.90 71.40 73.10 72.37 72.56 70.82 70.14 69.28 68.32 71.08 71.01 67.48 65.30 64.25 63.55 61.67 60.03 58.08 57.67 58.03 58.79
42.64 38.94 44.53 38.54 39.56 35.21 38.14 42.64 47.30 49.66 48.20 50.43 50.75 51.83 53.00 54.71 55.71 55.99 57.04 58.22 59.57 60.54 61.82 62.42 64.01 64.63 67.28 69.10 70.70 71.01 71.27 72.05 71.71 70.77 69.94 69.21 69.89 67.32 65.25 65.51 63.72 62.84 59.55 58.95 57.58 57.02 56.70 59.38 59.00
44.64 46.26 38.44 40.16 30.53 28.93 36.27 37.37 37.36 42.36 44.60 48.01 49.68 51.05 52.22 53.73 54.63 55.72 56.51 57.46 59.94 61.55 61.89 64.44 65.72 64.69 64.93 66.15 70.48 70.28 71.35 71.84 72.53 73.03 69.65 68.40 65.74 65.21 63.87 61.67 60.85 57.83 57.26 56.51 56.83 57.50 59.20 58.56 57.26
42.34 40.67 42.10 41.77 38.10 30.72 29.88 35.61 46.72 45.12 44.56 47.38 49.57 50.79 52.13 53.29 54.17 54.51 54.87 56.61 58.25 58.12 60.56 62.28 64.26 65.45 65.00 64.48 65.42 70.15 70.60 71.81 72.18 72.12 70.34 65.70 65.11 64.30 61.58 59.77 57.72 55.47 56.63 58.18 57.09 57.47 57.26 56.04 56.19
44.45 42.30 42.29 36.25 34.67 38.40 35.87 35.89 47.85 48.32 49.10 47.76 48.74 49.96 52.34 53.03 54.09 54.49 54.80 55.91 57.75 57.57 58.66 60.33 62.77 63.05 65.40 65.10 64.39 69.51 71.34 71.51 71.35 70.30 67.23 64.68 63.73 63.43 60.24 57.29 56.15 55.94 56.65 57.22 56.52 55.22 55.33 53.91 52.63
MSLP
1008.90 1007.90 1007.27 1006.02 1005.07 1002.57 1000.23 998.32 996.38 994.68 994.46 995.12 996.00 996.52 997.20 998.39 999.02 1000.59 1001.90 1001.91 1001.92 1003.17 1004.12 1004.76 1005.35 1005.56 1006.16 1006.64 1007.10 1007.69 1008.04 1008.25 1008.75 1009.21 1009.55 1009.71 1009.88 1010.04 1010.34 1010.60 1010.73 1010.90 1011.11 1011.23 1011.46 1011.68 1011.80 1011.93 1012.07
1008.78 1007.23 1005.98 1004.98 1003.40 1000.97 998.83 996.94 995.70 994.83 995.13 996.08 996.68 997.09 997.61 999.53 999.89 1000.64 1001.30 1001.81 1002.17 1003.25 1004.04 1004.83 1005.54 1005.79 1006.20 1006.84 1007.06 1007.67 1008.29 1008.50 1008.97 1009.28 1009.74 1009.94 1010.20 1010.38 1010.47 1010.66 1010.82 1011.03 1011.26 1011.41 1011.56 1011.71 1011.90 1012.03 1012.15
1008.74 1007.23 1005.58 1003.76 1002.04 1000.20 998.54 996.29 995.73 995.69 995.95 996.64 997.23 998.01 998.38 1000.08 1000.65 1001.22 1001.58 1001.64 1001.99 1003.25 1003.94 1005.04 1005.75 1006.07 1006.37 1006.68 1007.45 1007.59 1008.04 1008.61 1008.99 1009.47 1009.89 1010.16 1010.32 1010.59 1010.81 1010.96 1011.11 1011.25 1011.38 1011.53 1011.71 1011.84 1011.87 1012.05 1012.17
1007.10 1005.85 1005.30 1003.23 1000.96 999.21 998.06 996.84 996.33 996.52 996.99 997.53 998.09 998.56 999.70 1000.77 1001.06 1001.52 1001.60 1001.43 1001.86 1002.84 1003.87 1005.25 1005.88 1006.38 1006.67 1006.69 1007.39 1008.00 1008.13 1008.39 1008.88 1009.47 1010.02 1010.25 1010.50 1010.76 1010.96 1011.09 1011.31 1011.39 1011.49 1011.60 1011.79 1012.00 1012.13 1012.25 1012.37
1006.89 1005.50 1003.88 1002.27 1000.57 999.41 998.08 996.79 997.37 997.69 997.84 997.89 998.19 999.00 999.68 1000.98 1001.26 1001.38 1001.51 1001.30 1001.34 1002.32 1004.05 1004.90 1005.82 1006.48 1006.80 1007.09 1007.25 1008.11 1008.39 1008.73 1008.94 1009.21 1009.79 1010.35 1010.61 1010.90 1011.10 1011.27 1011.38 1011.55 1011.73 1011.89 1012.09 1012.21 1012.33 1012.44 1012.50
1006.14 1005.01 1003.66 1001.84 1000.12 998.81 997.72 997.01 997.55 998.13 998.33 998.38 998.63 999.36 1000.05 1000.85 1001.46 1001.52 1001.49 1001.32 1001.30 1002.50 1003.84 1004.82 1005.61 1006.49 1006.94 1007.29 1007.49 1007.94 1008.43 1008.91 1009.30 1009.48 1009.82 1010.30 1010.66 1010.85 1011.19 1011.40 1011.49 1011.66 1011.85 1012.07 1012.28 1012.35 1012.46 1012.51 1012.54
1005.60 1004.23 1002.88 1001.69 1000.30 998.93 997.84 997.79 998.42 998.91 999.31 999.24 999.45 999.91 1000.16 1001.05 1001.91 1001.71 1001.60 1001.48 1002.43 1003.18 1004.25 1005.17 1005.61 1006.39 1007.19 1007.49 1007.73 1007.99 1008.38 1008.82 1009.31 1009.77 1010.03 1010.39 1010.88 1010.93 1011.23 1011.50 1011.66 1011.81 1011.98 1012.10 1012.25 1012.32 1012.41 1012.37 1012.40
1004.94 1004.35 1003.15 1001.99 1000.70 999.45 998.55 999.16 999.71 999.87 999.88 999.83 1000.61 1000.69 1000.80 1001.52 1002.06 1001.96 1001.67 1001.62 1002.20 1002.96 1004.13 1004.82 1005.72 1006.13 1006.94 1007.48 1007.97 1008.20 1008.42 1008.86 1009.21 1009.77 1010.07 1010.45 1010.90 1011.15 1011.36 1011.55 1011.70 1011.91 1012.08 1012.16 1012.19 1012.20 1012.22 1012.17 1012.23
1005.29 1004.60 1003.19 1002.01 1000.92 1000.08 999.50 999.42 999.89 1000.30 1000.78 1001.03 1001.58 1001.46 1000.99 1001.10 1001.74 1002.28 1002.13 1001.75 1002.30 1003.34 1003.79 1004.67 1005.26 1005.98 1006.31 1007.03 1007.93 1008.33 1008.62 1008.96 1009.37 1009.79 1010.10 1010.42 1010.61 1010.95 1011.21 1011.33 1011.52 1011.83 1011.93 1012.01 1012.01 1011.95 1011.91 1011.95 1011.89
1004.77 1004.19 1003.00 1001.91 1001.93 1001.83 1001.36 1001.49 1001.03 1001.37 1001.48 1001.57 1001.68 1001.74 1001.59 1001.56 1001.76 1002.38 1002.16 1001.58 1001.98 1003.19 1003.86 1004.83 1005.02 1005.48 1005.91 1006.08 1007.57 1008.05 1008.46 1008.91 1009.23 1009.58 1009.88 1009.94 1009.92 1010.28 1010.36 1010.80 1011.31 1011.62 1011.69 1011.74 1011.78 1011.77 1011.79 1011.77 1011.35
1004.55 1004.32 1003.65 1002.76 1002.92 1003.13 1002.70 1002.52 1002.60 1002.47 1002.38 1002.35 1002.01 1001.85 1001.50 1001.43 1001.69 1002.37 1002.65 1002.33 1001.96 1002.69 1003.85 1004.72 1004.95 1005.25 1005.44 1005.66 1007.01 1007.50 1008.03 1008.52 1008.79 1009.03 1009.41 1009.55 1009.44 1009.64 1009.93 1010.61 1011.03 1011.28 1011.44 1011.41 1011.43 1011.46 1011.42 1011.11 1010.76
1004.83 1004.68 1004.39 1003.52 1003.82 1003.79 1003.65 1003.28 1003.21 1003.21 1002.93 1002.76 1002.54 1002.17 1001.99 1002.11 1002.19 1002.50 1002.61 1002.42 1002.36 1002.44 1003.24 1004.34 1005.04 1005.30 1005.36 1005.82 1006.34 1006.76 1007.39 1007.86 1008.34 1008.41 1008.91 1009.08 1009.18 1009.32 1009.44 1009.87 1010.07 1010.49 1010.51 1010.65 1010.45 1010.51 1010.38 1010.41 1010.06
1004.77 1004.44 1004.14 1003.77 1004.04 1004.17 1004.19 1003.94 1003.59 1003.27 1003.29 1003.06 1002.80 1002.47 1002.28 1002.26 1002.45 1002.65 1002.60 1002.35 1002.71 1003.06 1003.48 1004.13 1004.94 1005.28 1005.18 1005.77 1006.00 1006.09 1006.52 1007.07 1007.46 1007.84 1008.34 1008.36 1008.45 1008.97 1009.08 1009.14 1009.23 1009.50 1009.45 1009.73 1009.74 1009.72 1009.79 1009.88 1009.88
1005.11 1004.75 1004.61 1004.35 1004.04 1003.94 1003.86 1003.59 1003.47 1003.11 1003.05 1002.65 1002.46 1002.34 1002.32 1002.21 1002.09 1002.23 1002.39 1002.36 1002.57 1003.11 1003.57 1004.01 1004.78 1005.24 1005.28 1005.63 1005.67 1005.62 1005.71 1006.23 1006.66 1006.87 1007.62 1008.00 1008.00 1008.57 1008.93 1009.08 1008.92 1008.98 1008.73 1008.85 1009.23 1009.31 1009.60 1009.83 1009.76
1005.26 1004.98 1004.40 1003.74 1003.02 1002.65 1003.03 1003.22 1002.98 1002.65 1002.08 1001.88 1001.72 1001.76 1001.92 1001.87 1001.83 1001.92 1002.22 1002.28 1002.49 1002.87 1003.19 1003.61 1004.51 1004.91 1005.31 1005.70 1005.63 1005.47 1005.30 1005.48 1005.97 1006.35 1006.77 1007.51 1007.64 1008.09 1008.57 1008.80 1008.85 1008.87 1008.69 1008.83 1009.11 1009.37 1009.56 1009.82 1009.55
1005.28 1004.40 1003.21 1001.94 1001.28 1001.35 1002.44 1002.05 1001.90 1001.79 1001.49 1001.06 1001.06 1001.56 1001.63 1001.59 1001.68 1001.76 1001.87 1002.17 1002.47 1002.56 1003.04 1003.22 1003.62 1004.45 1004.86 1005.36 1005.47 1005.24 1004.94 1004.72 1005.36 1005.74 1006.10 1006.89 1007.39 1007.71 1008.18 1008.46 1008.69 1008.65 1008.64 1009.01 1009.38 1009.45 1009.54 1009.60 1009.62
1003.80 1002.82 1002.01 1001.30 1001.17 1001.33 1001.41 1000.82 1001.00 1000.98 1001.02 1000.90 1000.74 1001.04 1001.16 1001.11 1001.20 1001.29 1001.49 1001.73 1002.06 1002.39 1002.58 1002.95 1003.37 1003.94 1004.45 1004.68 1004.92 1004.80 1003.91 1003.87 1004.59 1005.25 1005.76 1006.33 1007.06 1007.45 1007.89 1008.24 1008.31 1008.46 1008.84 1009.00 1009.17 1009.12 1009.19 1009.47 1009.46
1003.83 1003.62 1003.19 1002.52 1002.43 1001.97 1001.70 1001.23 1001.04 1000.75 1000.33 1000.23 1000.06 999.97 1000.10 1000.31 1000.22 1000.53 1000.79 1001.15 1001.57 1002.02 1002.39 1002.62 1003.16 1003.73 1004.14 1004.42 1004.27 1003.77 1003.80 1003.15 1004.24 1004.72 1005.22 1005.88 1006.64 1007.17 1007.62 1007.94 1008.09 1008.51 1008.64 1008.78 1008.97 1008.95 1009.13 1009.58 1009.71
1004.41 1004.25 1003.67 1003.23 1002.82 1002.47 1001.78 1001.18 1000.75 1000.32 999.78 999.53 999.43 999.20 999.09 999.24 999.48 999.77 1000.11 1000.47 1000.95 1001.51 1001.96 1002.30 1002.97 1003.64 1004.10 1004.25 1004.34 1003.64 1003.50 1004.30 1004.77 1004.65 1004.69 1005.69 1006.17 1006.91 1007.54 1007.77 1007.86 1008.15 1008.48 1008.65 1008.72 1009.17 1009.51 1010.00 1010.10
1004.90 1004.50 1003.79 1003.08 1002.68 1002.22 1001.51 1001.13 1001.03 1000.20 999.42 999.06 998.79 998.42 998.16 998.28 998.52 998.93 999.39 999.96 1000.57 1001.22 1001.69 1002.26 1002.76 1003.45 1003.90 1004.04 1004.53 1004.30 1004.43 1004.61 1004.68 1004.73 1004.79 1005.40 1006.15 1006.88 1007.39 1007.60 1007.81 1008.18 1008.33 1008.60 1009.00 1009.41 1009.97 1010.26 1010.52
1004.83 1004.59 1004.08 1003.59 1002.96 1002.23 1001.60 1000.59 999.93 999.53 999.44 998.12 997.40 997.27 997.24 997.44 997.73 998.09 998.58 999.26 1000.02 1000.77 1001.45 1002.07 1002.62 1003.11 1003.57 1003.84 1004.06 1004.44 1004.55 1004.81 1004.35 1004.59 1004.61 1005.24 1006.00 1006.76 1007.15 1007.28 1007.66 1007.95 1008.31 1008.53 1009.05 1009.70 1010.06 1010.45 1010.96
1004.77 1005.03 1004.81 1004.43 1003.87 1002.59 1002.15 1000.47 999.77 998.75 998.06 998.16 998.71 996.62 996.56 996.88 997.18 997.77 998.11 998.59 999.38 1000.15 1000.90 1001.50 1002.10 1002.58 1003.14 1003.58 1003.78 1004.02 1004.36 1004.39 1004.40 1003.89 1004.71 1005.01 1005.79 1006.48 1006.89 1006.99 1007.16 1007.48 1008.18 1008.58 1009.13 1009.87 1010.30 1010.72 1011.05
1005.79 1005.69 1005.48 1004.97 1004.19 1003.35 1002.29 1001.33 999.21 998.26 997.51 996.84 996.00 996.54 997.12 997.43 997.39 997.50 997.84 998.35 998.85 999.58 1000.37 1000.91 1001.46 1002.04 1002.39 1002.85 1003.40 1003.58 1004.11 1004.27 1004.13 1004.35 1004.40 1004.99 1005.39 1005.98 1006.21 1006.61 1006.97 1007.52 1008.33 1009.02 1009.44 1010.26 1010.79 1011.26 1011.37
1005.93 1005.29 1004.97 1004.56 1003.77 1002.71 1002.04 1002.25 999.99 999.39 999.55 999.11 998.90 997.54 997.27 997.39 997.81 998.28 998.37 998.33 998.62 999.06 999.81 1000.47 1001.04 1001.59 1001.90 1002.31 1002.87 1003.44 1003.75 1003.95 1004.12 1004.24 1004.46 1004.52 1004.62 1005.53 1005.82 1006.29 1007.02 1007.71 1008.63 1009.41 1009.94 1010.95 1011.30 1011.55 1012.06
1005.85 1005.75 1005.22 1005.08 1004.25 1003.64 1004.06 1004.15 1002.77 1001.33 999.79 998.63 998.34 997.61 997.46 997.68 998.01 998.49 998.51 998.59 998.71 999.12 999.57 999.98 1000.48 1001.00 1001.37 1001.74 1002.34 1002.88 1003.25 1003.59 1003.47 1003.50 1004.25 1003.82 1003.69 1005.36 1005.98 1006.84 1007.51 1007.98 1008.96 1009.75 1010.54 1011.34 1011.92 1012.09 1012.44
1006.02 1006.37 1006.14 1005.22 1005.16 1004.02 1003.59 1002.77 1001.09 999.69 999.70 998.58 998.53 998.53 998.39 998.02 998.28 998.58 998.70 998.89 998.95 999.29 999.59 999.83 1000.04 1000.49 1000.92 1001.35 1001.73 1002.32 1002.50 1002.94 1002.89 1003.05 1003.78 1003.45 1003.49 1004.82 1006.11 1006.85 1007.98 1008.92 1009.60 1010.25 1010.96 1011.46 1012.29 1012.87 1012.87
1006.24 1006.48 1006.16 1006.38 1006.24 1005.10 1003.99 1001.72 1001.15 1001.20 1000.61 999.27 999.30 999.22 998.85 998.67 998.88 999.20 999.59 999.73 999.90 1000.27 1000.37 1000.58 1000.50 1000.76 1000.90 1001.02 1001.28 1001.77 1002.11 1002.35 1002.42 1002.66 1003.39 1004.17 1005.13 1004.09 1005.85 1007.04 1008.27 1009.83 1010.39 1010.56 1010.85 1011.74 1012.11 1012.90 1013.74
1006.62 1006.25 1006.46 1007.38 1007.09 1005.42 1003.40 1002.73 1003.20 1003.51 1002.92 1002.07 1001.04 1000.54 999.82 999.63 999.76 1000.15 1000.47 1000.87 1000.92 1000.87 1001.01 1001.05 1001.03 1001.06 1001.32 1001.35 1001.21 1001.36 1001.63 1001.87 1002.01 1002.24 1003.24 1001.70 1004.15 1005.56 1006.29 1007.28 1008.11 1009.64 1010.55 1010.79 1011.11 1011.91 1012.56 1013.76 1013.49
1006.03 1005.84 1006.96 1007.05 1007.92 1006.93 1005.28 1004.15 1004.02 1004.12 1004.27 1003.30 1002.54 1002.30 1001.71 1000.91 1000.36 1000.98 1001.41 1001.64 1001.64 1001.70 1001.31 1001.41 1001.17 1001.19 1001.40 1001.36 1001.38 1001.28 1001.40 1001.48 1001.75 1002.21 1003.37 1004.01 1003.64 1005.50 1006.85 1007.74 1009.04 1009.73 1009.90 1010.93 1010.84 1011.72 1012.73 1012.96 1014.04
1006.59 1006.36 1006.82 1007.42 1007.60 1007.03 1006.64 1004.51 1003.48 1003.03 1003.49 1004.37 1004.47 1004.13 1003.40 1003.01 1001.71 1001.00 1001.26 1001.81 1001.97 1001.98 1001.82 1001.54 1001.49 1001.27 1001.11 1001.25 1001.06 1001.19 1001.30 1001.49 1001.83 1002.36 1003.89 1003.54 1005.45 1007.08 1007.94 1008.93 1009.53 1010.19 1009.72 1011.41 1010.50 1011.45 1012.73 1013.81 1014.25
Wind_Speed
16 14 9 10 7 8 15 18 19 20 3 12 12 9 12 17 12 8 11 8 11 17 15 15 13 15 15 15 15 13 13 14 13 12 11 12 12 12 12 12 11 12 11 12 11 9 8 6 5
12 19 7 7 9 12 14 20 18 18 17 10 4 4 3 16 11 13 13 8 9 17 12 13 13 15 15 14 16 15 13 14 13 13 12 11 12 11 12 12 12 12 11 11 10 9 7 6 4
13 14 8 6 12 15 16 22 14 17 15 6 3 5 7 8 13 5 9 8 11 15 12 14 13 13 15 16 13 16 16 14 14 12 11 11 12 11 11 10 10 10 11 10 8 7 6 4 4
8 7 7 11 19 18 22 22 11 8 5 3 5 2 9 8 4 6 7 4 7 16 15 16 15 12 13 17 15 13 15 17 16 14 12 12 11 11 10 9 9 9 9 9 8 6 4 3 2
6 7 12 16 18 19 21 25 8 5 9 10 5 3 4 11 8 6 7 8 7 16 17 17 16 13 13 14 17 14 14 14 15 16 15 13 12 11 10 9 9 8 7 7 6 5 3 1 1
8 6 11 15 19 21 21 7 3 2 10 10 4 5 3 12 10 7 8 6 13 20 17 16 19 14 12 13 15 15 14 13 13 14 14 13 12 12 10 9 9 8 7 6 5 4 2 1 2
12 11 17 20 19 22 14 10 5 2 8 9 7 4 2 15 8 6 4 8 16 13 16 12 14 15 12 12 13 15 15 14 13 12 12 12 11 11 10 9 7 7 6 6 5 4 3 3 4
11 12 21 18 17 19 16 6 2 1 7 14 8 3 10 11 7 6 5 7 5 9 14 13 12 14 12 11 12 13 15 14 13 13 13 12 11 10 9 8 8 7 6 5 5 5 5 5 6
13 10 13 18 20 15 18 4 7 4 4 12 11 14 15 12 6 5 8 7 8 6 6 12 14 12 12 13 11 12 13 15 13 13 13 12 8 10 11 11 13 9 8 6 7 7 8 8 11
7 11 17 15 13 13 20 16 13 9 11 10 12 15 17 13 5 3 9 8 13 12 9 4 5 14 13 12 12 10 10 9 9 10 11 8 8 9 12 11 12 10 9 9 9 10 10 10 7
6 13 18 21 14 13 19 17 14 14 14 14 18 14 17 13 1 3 9 11 11 12 7 9 4 4 13 11 10 7 6 7 8 11 10 9 7 7 6 6 6 6 9 6 9 8 7 10 8
9 14 15 16 13 17 15 19 17 17 18 19 19 18 15 13 12 11 11 10 9 3 11 7 8 8 4 6 9 10 9 8 7 9 12 8 5 7 6 8 9 7 6 8 7 7 8 8 4
15 16 14 12 12 14 16 18 21 20 19 19 21 19 19 15 16 12 14 9 4 3 3 9 6 8 6 8 8 9 10 10 10 10 11 8 5 7 5 4 7 8 7 8 4 5 3 4 6
16 14 17 18 18 18 19 19 19 18 19 20 20 19 19 20 17 13 13 10 7 6 4 8 9 8 7 6 6 6 8 11 10 10 10 10 5 5 5 5 3 4 4 4 5 4 2 3 5
15 18 18 20 22 21 10 16 19 21 21 20 19 16 17 18 18 13 13 11 8 8 8 7 10 9 7 7 8 6 4 10 8 8 12 11 8 7 6 4 4 4 2 1 3 3 1 4 5
20 21 18 19 15 11 15 16 17 17 18 20 10 14 15 15 17 16 14 12 10 8 9 9 8 12 10 8 9 8 5 7 8 6 9 12 8 6 6 4 4 4 3 3 3 4 4 5 2
17 17 21 20 16 16 16 21 20 17 16 19 15 15 16 15 15 14 14 12 8 7 7 10 8 7 11 12 10 11 7 4 7 7 9 12 8 7 6 4 4 3 4 4 4 4 2 2 0
24 24 24 26 22 25 24 26 25 24 22 20 20 19 18 19 18 15 14 14 11 8 7 7 7 7 7 8 9 12 6 2 4 6 8 13 7 7 6 5 6 5 2 4 4 3 1 2 3
20 23 25 25 24 24 25 25 22 23 21 19 20 19 17 16 16 14 13 12 10 8 8 8 7 4 6 4 6 6 7 7 7 4 11 13 9 8 8 5 5 6 6 4 4 4 0 4 5
22 24 25 25 25 23 21 23 23 26 24 23 22 22 20 18 16 14 13 10 8 6 6 8 7 6 6 4 7 7 9 11 9 4 8 12 11 9 9 6 5 6 4 5 5 3 1 2 3
20 21 22 26 25 23 23 24 20 26 18 14 27 22 18 15 13 12 14 12 9 9 6 8 9 7 7 8 4 7 7 9 12 5 8 10 10 9 8 8 7 8 4 4 6 3 1 3 2
21 20 21 23 21 19 21 18 22 20 20 16 26 16 14 9 11 9 9 11 10 9 8 8 9 10 9 9 8 8 8 10 9 7 7 9 10 11 12 9 7 7 4 7 5 4 4 3 4
19 16 17 21 21 22 22 15 18 21 18 11 9 8 5 6 8 5 6 9 9 11 8 7 11 10 9 8 10 7 8 9 9 8 11 12 12 13 13 10 8 7 7 7 9 7 6 4 5
19 20 20 20 18 18 20 14 17 3 9 12 8 15 5 4 4 8 9 6 7 9 11 8 7 9 9 8 8 10 10 10 10 12 10 12 11 9 12 11 9 11 10 9 9 8 8 6 6
17 17 12 13 12 8 10 10 9 14 14 12 13 8 6 2 4 2 4 5 5 8 7 8 9 10 9 9 9 9 11 11 14 13 9 14 10 8 9 11 11 10 11 10 9 9 8 7 7
21 15 12 22 17 19 16 10 11 12 24 9 5 3 5 3 3 4 5 8 6 3 5 6 5 8 8 8 10 9 8 8 10 14 10 10 10 11 14 13 13 13 12 11 10 9 7 6 6
13 12 17 11 15 16 16 22 14 19 21 8 3 4 5 8 8 5 7 8 10 12 11 12 10 10 4 3 8 7 8 9 10 12 8 6 4 13 16 14 15 12 11 12 11 8 9 6 4
18 17 12 5 7 11 12 7 3 12 13 17 13 15 3 2 4 10 8 12 10 6 7 6 7 6 8 10 5 7 7 9 11 9 9 10 11 14 15 15 16 15 12 12 12 8 7 6 7
17 10 12 10 7 7 13 5 6 5 6 14 14 16 22 20 9 8 6 3 10 12 6 7 7 4 5 8 8 7 5 8 9 8 10 16 16 16 16 15 14 14 14 9 12 12 10 11 7
22 18 18 7 11 10 7 10 17 10 8 12 16 15 17 16 18 9 3 9 9 10 13 8 6 8 4 6 8 6 5 5 7 7 8 16 18 15 15 14 15 13 15 10 11 14 10 10 10
Wind_Direction
290 261 247 259 243 226 255 252 257 278 64 39 53 1 4 53 30 75 81 24 44 114 126 119 117 121 131 131 129 132 134 131 133 134 131 132 134 131 125 120 117 118 123 122 120 118 113 105 91
294 293 238 275 246 250 253 243 244 275 85 66 47 327 293 81 53 65 33 9 75 122 135 128 126 129 132 133 135 135 138 134 136 137 140 141 134 133 132 133 130 126 126 124 125 123 117 114 108
266 268 268 234 239 247 268 279 336 40 67 54 60 70 3 45 59 42 23 41 108 114 139 125 130 133 141 134 139 139 142 140 138 140 145 145 137 136 135 134 132 131 130 130 128 127 129 131 114
269 221 250 261 260 253 236 256 18 3 71 84 336 354 98 73 67 38 26 346 128 137 132 132 131 137 141 137 139 146 146 144 143 143 151 150 142 143 144 142 140 137 139 135 131 127 121 111 94
254 276 243 256 258 259 275 283 82 323 316 318 138 254 105 103 73 25 32 326 143 125 133 137 132 140 143 143 141 149 146 146 147 149 153 155 147 147 151 152 148 144 138 131 126 117 112 91 42
242 226 263 263 260 251 257 259 99 267 306 303 292 199 252 117 67 346 24 41 352 132 138 142 136 139 143 150 145 145 147 147 151 152 154 150 153 150 157 158 155 149 144 135 124 126 150 185 265
254 267 261 266 275 287 304 52 132 189 262 276 29 358 310 75 51 340 13 85 94 125 120 144 149 140 145 148 148 147 148 152 152 153 154 147 156 152 157 158 156 149 146 141 146 166 205 231 264
253 277 271 273 282 280 284 79 73 284 273 326 14 225 240 91 61 334 6 319 111 130 138 146 157 155 161 156 152 152 152 157 152 155 150 150 155 155 157 151 150 157 158 160 181 204 229 250 262
273 266 266 269 270 317 323 218 166 13 313 308 307 296 296 335 23 7 283 218 135 118 129 140 158 166 175 163 163 155 155 166 152 155 156 154 174 174 165 195 158 174 177 188 207 221 231 242 249
246 272 263 275 352 327 317 346 356 332 303 263 249 272 253 273 248 265 289 289 141 142 168 161 155 171 184 167 152 170 167 172 175 178 171 187 191 178 176 158 161 176 189 203 220 229 235 243 248
250 282 307 304 340 329 313 313 314 303 278 272 282 279 291 294 208 264 286 290 304 123 131 157 186 234 194 168 156 173 167 179 188 186 176 212 198 178 162 145 172 184 203 213 214 226 230 232 246
282 291 292 299 305 311 301 311 302 294 288 294 293 295 296 289 291 288 265 252 282 182 161 185 172 225 226 134 163 171 168 176 193 189 182 208 209 174 181 170 183 192 185 214 209 213 223 218 322
281 286 280 310 289 273 278 277 286 283 286 285 279 274 275 264 262 263 273 265 260 317 346 164 189 220 229 152 179 183 178 174 195 187 186 207 182 170 189 211 178 191 189 208 197 248 170 166 220
293 297 302 291 280 276 273 271 282 279 283 275 265 258 268 268 260 253 259 264 199 195 232 174 188 211 261 206 211 218 183 175 192 180 179 216 190 164 194 236 225 201 205 169 190 203 141 216 249
322 294 282 272 262 249 253 279 267 272 272 260 249 257 256 253 257 259 265 273 272 197 200 170 183 204 214 230 253 239 223 171 187 180 170 200 184 167 200 205 184 251 195 262 32 18 110 262 277
274 271 271 270 275 222 213 253 257 285 282 291 242 246 257 263 259 261 248 238 257 275 194 175 192 188 210 215 227 237 235 186 180 194 162 183 179 178 190 192 182 215 188 143 220 204 236 209 263
271 274 298 317 312 297 298 287 295 267 272 277 259 258 261 252 252 245 253 261 254 258 239 169 178 224 204 206 224 248 223 227 175 192 165 171 178 204 172 230 163 217 205 196 210 207 167 326 180
316 306 303 301 300 307 303 291 284 282 272 272 272 252 241 238 249 244 234 234 233 224 233 173 170 193 259 208 216 235 251 322 230 191 163 163 178 198 172 219 168 200 225 218 219 165 92 65 48
300 300 296 294 297 289 279 280 308 300 279 263 261 263 257 252 253 236 236 230 216 212 211 159 165 208 209 211 230 246 224 236 262 248 154 162 171 192 179 214 169 169 206 245 132 105 183 46 36
304 298 291 290 286 283 292 285 277 271 278 271 263 259 254 248 235 231 223 220 202 212 195 155 162 198 227 229 217 225 226 217 224 236 147 161 171 185 181 221 182 178 221 137 130 78 62 106 75
299 296 297 298 304 297 292 284 296 300 329 273 248 243 243 250 248 240 208 207 195 195 215 167 173 191 218 232 218 229 239 243 234 231 156 167 169 175 192 208 181 188 214 157 112 121 156 106 104
300 317 315 303 297 290 302 297 277 271 249 202 274 218 225 244 228 236 250 200 190 192 191 185 179 179 202 211 235 212 223 221 221 217 201 165 171 185 204 199 174 157 124 111 114 76 85 339 128
302 298 295 293 287 281 271 264 271 276 290 301 218 83 17 300 308 263 253 226 203 185 206 203 177 193 190 197 215 223 226 244 226 205 204 184 179 198 194 190 132 130 106 87 91 69 74 40 60
283 282 289 290 285 265 280 335 282 295 331 38 32 251 176 133 34 1 320 290 218 200 192 204 182 187 184 200 193 222 230 235 232 223 204 195 173 192 197 147 130 105 104 100 91 84 77 83 62
309 314 308 299 281 310 43 340 257 285 218 190 199 324 7 78 35 265 276 227 262 219 245 202 199 184 186 189 194 228 230 233 240 216 188 223 163 182 153 129 114 104 103 104 100 94 74 68 83
292 275 277 291 293 295 303 263 255 272 197 180 50 339 279 257 130 336 35 9 348 262 236 234 244 185 184 198 187 210 241 224 238 228 205 237 178 149 137 115 108 107 109 107 101 93 92 82 73
320 311 297 283 279 273 269 260 350 11 350 74 157 336 50 50 46 55 39 28 19 17 3 2 4 16 322 268 185 195 243 233 238 233 200 209 167 121 120 123 117 110 112 109 107 115 105 96 128
254 270 298 268 287 290 306 337 292 27 8 332 355 330 20 112 61 49 22 10 10 7 347 325 329 356 327 315 243 193 224 238 248 238 185 167 121 129 114 130 120 123 117 117 111 108 100 95 73
303 290 264 284 273 273 292 299 130 136 216 288 300 1 355 350 118 130 252 310 323 333 318 306 301 243 259 282 292 203 225 226 242 242 157 138 127 127 134 127 124 129 128 128 124 101 98 84 79
262 272 313 286 276 271 275 263 272 360 16 6 321 336 331 329 337 344 8 2 350 324 314 312 336 320 290 279 268 216 202 258 242 236 129 143 137 132 127 125 127 124 116 132 106 108 101 94 80